Regional Weather Roundup
Issued by NWS

Home | Current Version | Previous Version | Text Only | Print | Product List | Glossary Off
Versions: 1 2 3 4 5 6 7 8 9 10 11 12 13 14 15 16 17 18 19 20 21 22 23 24 25 26 27 28 29 30 31 32 33 34 35 36 37 38 39 40 41 42 43 44 45 46 47 48 49 50

000
ASUS43 KLOT 220909
RWRIL

ILLINOIS REGIONAL WEATHER ROUNDUP
NATIONAL WEATHER SERVICE CHICAGO/ROMEOVILLE IL
400 AM CDT MON MAY 22 2017

NOTE: "FAIR" INDICATES FEW OR NO CLOUDS BELOW 12,000 FEET WITH NO
SIGNIFICANT WEATHER AND/OR OBSTRUCTIONS TO VISIBILITY.

* THESE STATIONS ARE NOT UNDER NWS QUALITY CONTROL. THEY ALSO MAY NOT
  REPORT WEATHER SUCH AS PRECIPITATION OR FOG.

ILZ001-002-007-009-015-016-024-221000-
NORTHWEST ILLINOIS

CITY           SKY/WX    TMP DP  RH WIND       PRES   REMARKS
MOLINE         CLEAR     47  41  80 SW3       30.03F
STERLING*      CLEAR     46  43  89 SW5       30.03S
SAVANNA*       CLEAR     48  43  81 W6        30.02S
$$

ILZ003-004-008-010-011-017-018-221000-
NORTH CENTRAL ILLINOIS

CITY           SKY/WX    TMP DP  RH WIND       PRES   REMARKS
ROCKFORD       CLEAR     47  42  83 SW7       30.02S
FREEPORT*      CLEAR     45  42  89 W9        30.01S
ROCHELLE*      CLEAR     44  42  93 SW8       30.02F
DE KALB*       CLEAR     46  42  86 W10       30.02S
PERU*          CLEAR     46  42  84 SW9       30.05S
$$

ILZ005-006-012>014-019>023-221000-
NORTHEAST ILLINOIS

CITY           SKY/WX    TMP DP  RH WIND       PRES   REMARKS
CHICAGO-OHARE  PTCLDY    50  42  74 W13       29.99S
CHICAGO-MIDWAY PTCLDY    50  43  77 W12       30.01S
AURORA         CLEAR     48  43  82 SW10      30.02F
LANSING*       CLEAR     49  43  80 W8        30.03R
WAUKEGAN       CLOUDY    50  42  74 VRB7      29.96S
DUPAGE AIRPORT CLEAR     46  44  93 SW8       30.00S
KANKAKEE*      PTCLDY    49  43  80 SW5       30.07R
WHEELING       CLEAR     49  43  80 W10       30.00S
MORRIS*        CLEAR     48  43  84 CALM      30.03S
ROMEOVILLE*    CLEAR     47  45  91 W9        30.03R
NORTHERLY ISL    N/A     51  41  68 W6          N/A
$$

LMZ740>746-221000-
SOUTHERN LAKE MICHIGAN

STATION/POSITION SKY/WX   TEMP    WIND        PRES    VSBY  WAVE
                          AIR SEA DIR/SP/G                  HT/PER
                          (F)     (DEG/KT/KT) (MB)    (MI)  (FT/S)
SOUTHERN BUOY              47 44  250/ 12/ 14 1014.5          2/ 4
WILMETTE HARBOR            51 52                N/A           2/ 2
HARRISON CRIB              53     250/ 17/ 20   N/A
BURNHAM HARBOR             51     250/  9/ 15   N/A
CALUMET HARBOR             51     230/  6/ 12 1015.8S
BURNS HARBOR               53     240/ 14/ 19 1016.9S
MICHIGAN CITY              52     240/ 19/ 21   N/A
MICHIGAN CITY 6N           52 52  260/ 16/ 21   N/A           4/ 4
ST. JOSEPH                 53 54  250/ 17/ 23 1016.3          4/ 4
$$

ILZ025>027-034>036-040-047-049-050-058-095>099-221000-
WEST-CENTRAL ILLINOIS

CITY           SKY/WX    TMP DP  RH WIND       PRES   REMARKS
QUINCY         CLEAR     48  46  93 S7        30.09F
GALESBURG*     CLEAR     44  42  91 S7        30.05S
MACOMB*        CLEAR     48  46  91 S8        30.09F
JACKSONVILLE*  CLEAR     47  46  97 S3        30.10F
PITTSFIELD*    CLEAR     51  48  92 CALM      30.11F
$$

ILZ028>032-037-038-041>044-048-051>054-059>061-221000-
CENTRAL ILLINOIS

CITY           SKY/WX    TMP DP  RH WIND       PRES   REMARKS
PONTIAC        CLEAR     50  47  90 SW12      30.07S
BLOOMINGTON    CLEAR     48  44  86 SW8       30.10R
DECATUR        CLEAR     50  46  86 SW5       30.11S
PEORIA         CLEAR     47  44  90 SW6       30.08S
LACON*         CLEAR     48  44  86 SW5       30.06S
LINCOLN*       CLEAR     50  48  92 CALM      30.10S
SPRINGFIELD    CLEAR     49  47  93 CALM      30.11F
TAYLORVILLE    CLEAR     48  47  99 CALM      30.12S
$$

ILZ033-039-045-046-055>057-062-063-221000-
EAST-CENTRAL ILLINOIS

CITY           SKY/WX    TMP DP  RH WIND       PRES   REMARKS
CHAMPAIGN      CLEAR     48  45  89 SW5       30.10S
RANTOUL*       CLEAR     52  46  82 W8        30.09S
MATTOON        CLOUDY    52  49  89 SW6       30.11R
$$

ILZ079-100>102-221000-
SOUTHWEST ILLINOIS

CITY           SKY/WX    TMP DP  RH WIND       PRES   REMARKS
ALTON          CLOUDY    48  47  95 CALM      30.12F
BELLEVILLE     CLEAR     51  48  90 SW3       30.14S
CAHOKIA*       CLEAR     50  47  89 S3        30.13S
SPARTA*        CLOUDY    52  49  89 CALM      30.14S
$$

ILZ064>066-069>071-074>076-080>082-084>086-088>090-092>094-221000-
SOUTH-CENTRAL ILLINOIS

CITY           SKY/WX    TMP DP  RH WIND       PRES   REMARKS
CARBONDALE     MOCLDY    54  54 100 CALM      30.13F
CAIRO*         PTCLDY    56  50  81 CALM      30.13F
EFFINGHAM*     CLEAR     50  50 100 CALM      30.13F
MARION         PTCLDY    54  52  94 CALM      30.14S
MT. VERNON       N/A     48  48 100 CALM      30.15R FOG
CENTRALIA*     PTCLDY    52  52 100 CALM      30.13R
SALEM*         CLOUDY    53  51  94 CALM      30.13S
METROPOLIS*    CLEAR     52  50  92 CALM      30.14F
$$

ILZ067-068-072-073-078-083-087-091-221000-
SOUTHEAST ILLINOIS

CITY           SKY/WX    TMP DP  RH WIND       PRES   REMARKS
LAWRENCEVILLE  CLOUDY    54  51  90 CALM      30.12F
FLORA*         PTCLDY    52  51  95 CALM      30.13S
FAIRFIELD*     PTCLDY    52  52 100 CALM      30.14R
HARRISBURG*    PTCLDY    52  51  96 CALM      30.15R
ROBINSON*      CLEAR     49  49  99 CALM      30.14S
CARMI*         CLOUDY    55  51  88 CALM      30.13S
$$

ABBREVIATIONS USED IN REMARKS
   TC - TEMPERATURE IN CELSIUS
  WCI - WIND CHILL INDEX
   HX - HEAT INDEX
  VSB - VISIBILITY
$$





USA.gov is the U.S. government's official web portal to all federal, state and local government web resources and services.